Location: *
(57.8420°S, 159.8600°W)
Time: 04:40:19
(UTC+00:00)

PAYLOAD B - Pass Details

Date: 18 May 2021
Orbit: 850 x 871 km, 99.1° (Epoch: 20 June)

Event Time Altitude Azimuth Distance (km) Brightness Sun altitude
Exits shadow 05:04:27 13° 155° (SSE) 2,373 6.2 -20.3°
Maximum altitude 05:09:33 56° 78° (ENE) 1,038 4.3 -20.9°
Drops below altitude 10° 05:15:03 10° 360° (N) 2,513 6.7 -21.7°
Sets 05:17:28 0° 355° (N) 3,439 7.5 -22.0°
